GW4926 Weather Reports


time (UTC)temp
C
wind
direction
speed
KPH
gust
KPH
rain 1hr
cm
rain 24hr
cm
rain mn
cm
humidity
%
barometer
mb
20260510205004 30 28 1.6 1.6 0.00 0.00 0.00 31 1014.0
20260510204503 30 357 0.0 3.2 0.00 0.00 0.00 32 1014.0
20260510204003 30 0 1.6 3.2 0.00 0.00 0.00 31 1014.0
20260510203503 30 229 1.6 3.2 0.00 0.00 0.00 30 1014.0
20260510203004 30 224 0.0 1.6 0.00 0.00 0.00 30 1014.0
20260510202503 30 0 0.0 0.0 0.00 0.00 0.00 32 1014.0
20260510202003 30 187 1.6 1.6 0.00 0.00 0.00 33 1014.0
20260510201503 30 36 0.0 0.0 0.00 0.00 0.00 31 1014.0
20260510201003 30 322 1.6 3.2 0.00 0.00 0.00 30 1014.0
20260510200504 30 14 3.2 3.2 0.00 0.00 0.00 30 1014.0
20260510200003 30 0 0.0 0.0 0.00 0.00 0.00 32 1014.0
20260510195503 29 39 0.0 0.0 0.00 0.00 0.00 30 1014.0
20260510195003 29 39 3.2 4.8 0.00 0.00 0.00 31 1014.0
20260510194503 30 23 1.6 3.2 0.00 0.00 0.00 30 1014.0
20260510194005 30 56 0.0 1.6 0.00 0.00 0.00 31 1014.0
20260510193503 30 0 1.6 1.6 0.00 0.00 0.00 30 1014.0
20260510193004 30 50 1.6 1.6 0.00 0.00 0.00 30 1014.0
20260510192503 31 288 1.6 1.6 0.00 0.00 0.00 30 1014.0
20260510192004 30 21 0.0 0.0 0.00 0.00 0.00 29 1014.0
20260510191504 30 241 0.0 1.6 0.00 0.00 0.00 30 1014.0
20260510191004 30 16 1.6 3.2 0.00 0.00 0.00 29 1014.0
20260510190504 30 330 1.6 1.6 0.00 0.00 0.00 30 1014.0
20260510190003 30 271 0.0 1.6 0.00 0.00 0.00 31 1014.0
20260510185504 30 31 1.6 3.2 0.00 0.00 0.00 31 1014.0
20260510185003 29 326 0.0 0.0 0.00 0.00 0.00 31 1015.0
20260510184504 30 355 0.0 1.6 0.00 0.00 0.00 34 1015.0
20260510184003 30 151 1.6 3.2 0.00 0.00 0.00 30 1015.0
20260510183505 30 202 1.6 1.6 0.00 0.00 0.00 32 1015.0
20260510183003 30 170 1.6 1.6 0.00 0.00 0.00 36 1015.0
20260510182504 31 105 0.0 1.6 0.00 0.00 0.00 31 1015.0
20260510182005 30 0 0.0 0.0 0.00 0.00 0.00 30 1015.0
20260510181504 30 76 0.0 1.6 0.00 0.00 0.00 32 1015.0
20260510181003 30 0 0.0 0.0 0.00 0.00 0.00 32 1015.0
20260510180503 29 328 0.0 0.0 0.00 0.00 0.00 31 1015.0
20260510180003 28 296 0.0 0.0 0.00 0.00 0.00 32 1015.0
20260510175503 28 0 0.0 0.0 0.00 0.00 0.00 31 1015.0
20260510175003 28 295 0.0 1.6 0.00 0.00 0.00 31 1015.0
20260510174503 28 232 0.0 1.6 0.00 0.00 0.00 32 1015.0
20260510174004 28 0 0.0 0.0 0.00 0.00 0.00 32 1015.0
20260510173503 27 0 0.0 0.0 0.00 0.00 0.00 32 1015.0
20260510173003 27 206 1.6 3.2 0.00 0.00 0.00 34 1015.0
20260510172503 27 0 0.0 0.0 0.00 0.00 0.00 31 1015.0
20260510172003 27 0 0.0 0.0 0.00 0.00 0.00 31 1015.0
20260510171504 26 218 3.2 4.8 0.00 0.00 0.00 31 1015.0
20260510171003 26 163 0.0 1.6 0.00 0.00 0.00 43 1015.0
20260510170505 26 226 1.6 1.6 0.00 0.00 0.00 36 1015.0
20260510170003 26 190 1.6 1.6 0.00 0.00 0.00 32 1015.0
20260510165504 26 210 3.2 6.4 0.00 0.00 0.00 36 1015.0
20260510165003 26 126 0.0 0.0 0.00 0.00 0.00 36 1015.0
20260510164505 25 69 1.6 3.2 0.00 0.00 0.00 40 1015.0
20260510164003 25 245 0.0 1.6 0.00 0.00 0.00 36 1015.0
20260510163505 25 0 0.0 0.0 0.00 0.00 0.00 39 1015.0
20260510163003 25 245 0.0 1.6 0.00 0.00 0.00 42 1015.0
20260510162503 25 0 0.0 0.0 0.00 0.00 0.00 53 1016.0
20260510162004 25 0 0.0 0.0 0.00 0.00 0.00 47 1016.0
20260510161503 25 242 1.6 3.2 0.00 0.00 0.00 46 1016.0
20260510161005 25 212 4.8 4.8 0.00 0.00 0.00 48 1016.0
20260510160505 25 188 1.6 3.2 0.00 0.00 0.00 48 1016.0
20260510160003 25 246 1.6 3.2 0.00 0.00 0.00 47 1016.0
20260510155504 24 270 0.0 0.0 0.00 0.00 0.00 50 1016.0
20260510155004 24 169 1.6 3.2 0.00 0.00 0.00 56 1016.0
20260510154504 24 53 0.0 0.0 0.00 0.00 0.00 50 1016.0
20260510154004 23 187 0.0 0.0 0.00 0.00 0.00 54 1016.0
20260510153503 23 37 0.0 0.0 0.00 0.00 0.00 57 1016.0
20260510153004 24 35 0.0 1.6 0.00 0.00 0.00 57 1016.0
20260510152503 23 37 3.2 3.2 0.00 0.00 0.00 52 1016.0
20260510152003 23 0 0.0 0.0 0.00 0.00 0.00 52 1016.0
20260510151504 23 331 0.0 0.0 0.00 0.00 0.00 55 1016.0
20260510151004 23 22 1.6 3.2 0.00 0.00 0.00 58 1016.0
20260510150503 23 198 0.0 1.6 0.00 0.00 0.00 67 1016.0
20260510150003 22 0 0.0 0.0 0.00 0.00 0.00 62 1016.0
20260510145504 22 0 0.0 0.0 0.00 0.00 0.00 63 1016.0
20260510145003 22 222 1.6 3.2 0.00 0.00 0.00 62 1016.0
20260510144504 22 0 0.0 0.0 0.00 0.00 0.00 70 1016.0
20260510144003 22 0 0.0 0.0 0.00 0.00 0.00 66 1016.0
20260510143503 21 343 0.0 0.0 0.00 0.00 0.00 65 1016.0
20260510143004 21 16 1.6 3.2 0.00 0.00 0.00 66 1016.0
20260510142504 21 0 0.0 0.0 0.00 0.00 0.00 67 1016.0
20260510142004 21 0 3.2 3.2 0.00 0.00 0.00 68 1016.0
20260510141504 21 196 0.0 0.0 0.00 0.00 0.00 69 1016.0
20260510141003 21 56 0.0 0.0 0.00 0.00 0.00 70 1016.0
20260510140503 20 0 0.0 0.0 0.00 0.00 0.00 72 1016.0
20260510140003 20 0 0.0 0.0 0.00 0.00 0.00 76 1016.0
20260510135503 20 43 0.0 1.6 0.00 0.00 0.00 75 1016.0
20260510135004 20 0 0.0 0.0 0.00 0.00 0.00 75 1016.0
20260510134505 19 240 0.0 0.0 0.00 0.00 0.00 79 1016.0
20260510134003 19 29 1.6 3.2 0.00 0.00 0.00 81 1016.0
20260510133504 18 36 1.6 3.2 0.00 0.00 0.00 82 1016.0
20260510133003 18 357 0.0 0.0 0.00 0.00 0.00 82 1016.0
20260510132505 18 222 0.0 0.0 0.00 0.00 0.00 85 1016.0
20260510132004 18 21 0.0 1.6 0.00 0.00 0.00 85 1016.0
20260510131505 17 0 0.0 0.0 0.00 0.00 0.00 88 1016.0
20260510131005 17 0 0.0 0.0 0.00 0.00 0.00 88 1016.0
20260510130505 17 44 0.0 1.6 0.00 0.00 0.00 92 1016.0
20260510130004 17 50 1.6 1.6 0.00 0.00 0.00 95 1016.0
20260510125503 16 0 0.0 0.0 0.00 0.00 0.00 96 1016.0
20260510125003 16 0 0.0 0.0 0.00 0.00 0.00 96 1016.0
20260510124503 16 0 0.0 0.0 0.00 0.00 0.00 97 1015.0
20260510124003 16 60 1.6 1.6 0.00 0.00 0.00 97 1015.0
20260510123504 16 0 0.0 0.0 0.00 0.00 0.00 98 1015.0
20260510123004 15 0 0.0 0.0 0.00 0.00 0.00 98 1015.0
20260510122505 15 62 1.6 1.6 0.00 0.00 0.00 98 1015.0
20260510122003 15 30 0.0 1.6 0.00 0.00 0.00 98 1015.0
20260510121504 15 55 0.0 1.6 0.00 0.00 0.00 98 1015.0
20260510121003 15 0 0.0 0.0 0.00 0.00 0.00 98 1015.0
20260510120503 15 0 0.0 0.0 0.00 0.00 0.00 98 1015.0
20260510120003 15 68 0.0 1.6 0.00 0.00 0.00 98 1015.0
20260510115503 14 0 0.0 0.0 0.00 0.00 0.00 98 1015.0
20260510115003 14 0 0.0 0.0 0.00 0.00 0.00 98 1015.0
20260510114504 14 0 0.0 0.0 0.00 0.00 0.00 98 1015.0
20260510114003 14 0 0.0 0.0 0.00 0.00 0.00 98 1015.0
20260510113504 14 0 0.0 0.0 0.00 0.00 0.00 98 1015.0
20260510113003 14 0 0.0 0.0 0.00 0.00 0.00 98 1015.0
20260510112503 14 0 0.0 0.0 0.00 0.00 0.00 98 1015.0
20260510112004 14 0 0.0 0.0 0.00 0.00 0.00 98 1014.0
20260510111503 14 0 0.0 0.0 0.00 0.00 0.00 98 1014.0
20260510111006 14 0 0.0 0.0 0.00 0.00 0.00 98 1014.0
20260510110503 14 70 0.0 0.0 0.00 0.00 0.00 98 1014.0
20260510110003 14 0 0.0 0.0 0.00 0.00 0.00 98 1014.0
20260510105503 14 0 0.0 0.0 0.00 0.00 0.00 98 1014.0
20260510105004 14 0 0.0 0.0 0.00 0.00 0.00 97 1014.0
20260510104505 14 0 0.0 0.0 0.00 0.00 0.00 98 1014.0
20260510104004 14 0 0.0 0.0 0.00 0.00 0.00 98 1014.0
20260510103503 14 0 0.0 0.0 0.00 0.00 0.00 97 1014.0
20260510103003 14 0 0.0 0.0 0.00 0.00 0.00 97 1014.0
20260510102503 14 0 0.0 0.0 0.00 0.00 0.00 97 1014.0
20260510101515 14 0 0.0 0.0 0.00 0.00 0.00 97 1014.0
20260510101003 14 0 0.0 0.0 0.00 0.00 0.00 97 1014.0
20260510100503 14 0 0.0 0.0 0.00 0.00 0.00 97 1013.0
20260510100003 14 0 0.0 0.0 0.00 0.00 0.00 97 1013.0
20260510095504 14 0 0.0 0.0 0.00 0.00 0.00 97 1013.0
20260510095003 14 0 0.0 0.0 0.00 0.00 0.00 97 1013.0
20260510094503 14 0 0.0 0.0 0.00 0.00 0.00 97 1013.0
20260510094005 14 0 0.0 0.0 0.00 0.00 0.00 97 1013.0
20260510093503 14 0 0.0 0.0 0.00 0.00 0.00 97 1013.0
20260510093003 14 0 0.0 0.0 0.00 0.00 0.00 97 1013.0
20260510092504 14 0 0.0 0.0 0.00 0.00 0.00 97 1013.0
20260510092003 14 0 0.0 0.0 0.00 0.00 0.00 97 1013.0
20260510091503 14 0 0.0 0.0 0.00 0.00 0.00 97 1013.0
20260510091004 14 0 0.0 0.0 0.00 0.00 0.00 97 1013.0
20260510090503 14 0 0.0 0.0 0.00 0.00 0.00 97 1013.0
20260510090004 14 0 0.0 0.0 0.00 0.00 0.00 97 1013.0
20260510085505 14 0 0.0 0.0 0.00 0.00 0.00 97 1013.0
20260510085003 14 0 0.0 0.0 0.00 0.00 0.00 97 1013.0
20260510084504 14 0 0.0 0.0 0.00 0.00 0.00 97 1013.0
20260510084003 14 0 0.0 0.0 0.00 0.00 0.00 97 1013.0
20260510083503 14 0 0.0 0.0 0.00 0.00 0.00 97 1013.0
20260510083006 14 0 0.0 0.0 0.00 0.00 0.00 97 1013.0
20260510082504 14 0 0.0 0.0 0.00 0.00 0.00 97 1013.0
20260510082003 14 70 1.6 1.6 0.00 0.00 0.00 97 1012.0
20260510081503 15 0 0.0 0.0 0.00 0.00 0.00 97 1012.0
20260510081004 15 0 0.0 0.0 0.00 0.00 0.00 97 1012.0
20260510080506 15 0 0.0 0.0 0.00 0.00 0.00 97 1012.0
20260510080004 15 0 0.0 0.0 0.00 0.00 0.00 97 1012.0
20260510075504 15 0 0.0 0.0 0.00 0.00 0.00 97 1012.0
20260510075004 15 0 0.0 0.0 0.00 0.00 0.00 97 1013.0
20260510074503 15 0 0.0 0.0 0.00 0.00 0.00 97 1013.0
20260510074003 15 0 0.0 0.0 0.00 0.00 0.00 97 1012.0
20260510073503 15 0 0.0 0.0 0.00 0.00 0.00 97 1012.0
20260510073004 15 0 0.0 0.0 0.00 0.00 0.00 97 1012.0
20260510072504 15 0 0.0 0.0 0.00 0.00 0.00 97 1012.0
20260510072003 15 0 0.0 0.0 0.00 0.00 0.00 97 1012.0
20260510071503 15 0 0.0 0.0 0.00 0.00 0.00 97 1012.0
20260510071007 15 0 0.0 0.0 0.00 0.00 0.00 97 1012.0
20260510070503 15 1 0.0 0.0 0.00 0.00 0.00 97 1012.0
20260510070003 15 0 0.0 0.0 0.00 0.00 0.00 97 1012.0
20260510065503 15 0 0.0 0.0 0.00 0.00 0.00 97 1012.0
20260510065004 15 0 0.0 0.0 0.00 0.00 0.00 97 1012.0
20260510064503 15 0 0.0 0.0 0.00 0.00 0.00 97 1012.0
20260510064004 15 0 0.0 0.0 0.00 0.00 0.00 97 1012.0
20260510063503 15 0 0.0 0.0 0.00 0.00 0.00 97 1012.0
20260510063004 15 0 0.0 0.0 0.00 0.00 0.00 97 1012.0
20260510062503 15 0 0.0 0.0 0.00 0.00 0.00 97 1012.0
20260510062003 15 0 0.0 0.0 0.00 0.00 0.00 97 1012.0
20260510061503 15 0 0.0 0.0 0.00 0.00 0.00 97 1012.0
20260510061004 15 245 1.6 1.6 0.00 0.00 0.00 96 1012.0
20260510060503 15 244 0.0 1.6 0.00 0.00 0.00 97 1012.0
20260510060006 15 253 0.0 1.6 0.00 0.00 0.00 96 1012.0
20260510055503 15 0 0.0 0.0 0.00 0.00 0.00 96 1012.0
20260510055004 15 0 0.0 0.0 0.00 0.00 0.00 96 1012.0
20260510054504 15 0 0.0 0.0 0.00 0.00 0.00 96 1012.0
20260510054003 15 66 0.0 0.0 0.00 0.00 0.00 96 1012.0
20260510053505 15 0 0.0 0.0 0.00 0.00 0.00 96 1012.0
20260510053004 15 0 0.0 0.0 0.00 0.00 0.00 96 1013.0
20260510052504 15 0 0.0 0.0 0.00 0.00 0.00 96 1013.0
20260510052005 15 0 0.0 0.0 0.00 0.00 0.00 96 1013.0
20260510051503 15 0 0.0 0.0 0.00 0.00 0.00 96 1013.0
20260510051003 15 0 0.0 0.0 0.00 0.00 0.00 96 1013.0
20260510050505 15 0 0.0 0.0 0.00 0.00 0.00 96 1013.0
20260510050004 15 288 0.0 0.0 0.00 0.00 0.00 96 1013.0
20260510045503 15 0 0.0 0.0 0.00 0.00 0.00 96 1013.0
20260510045004 15 0 0.0 0.0 0.00 0.00 0.00 96 1013.0
20260510044503 15 127 0.0 0.0 0.00 0.00 0.00 96 1013.0
20260510044004 15 0 0.0 0.0 0.00 0.00 0.00 96 1013.0
20260510043503 15 0 0.0 0.0 0.00 0.00 0.00 96 1013.0
20260510043004 15 0 0.0 0.0 0.00 0.00 0.00 96 1013.0
20260510042504 15 145 0.0 1.6 0.00 0.00 0.00 96 1013.0
20260510042004 15 220 1.6 1.6 0.00 0.00 0.00 95 1013.0
20260510041503 15 0 0.0 0.0 0.00 0.00 0.00 95 1013.0
20260510041003 15 0 0.0 0.0 0.00 0.00 0.00 95 1013.0
20260510040505 15 0 0.0 0.0 0.00 0.00 0.00 95 1013.0
20260510040004 15 0 0.0 0.0 0.00 0.00 0.00 95 1013.0
20260510035505 15 0 0.0 0.0 0.00 0.00 0.00 95 1013.0
20260510035004 16 0 0.0 0.0 0.00 0.00 0.00 95 1013.0
20260510034504 16 0 0.0 0.0 0.00 0.00 0.00 95 1013.0
20260510034008 16 185 0.0 0.0 0.00 0.00 0.00 95 1013.0
20260510033503 16 0 0.0 0.0 0.00 0.00 0.00 95 1013.0
20260510033003 16 0 0.0 0.0 0.00 0.00 0.00 95 1013.0
20260510032503 16 0 0.0 0.0 0.00 0.00 0.00 95 1013.0
20260510032004 16 0 0.0 0.0 0.00 0.00 0.00 95 1013.0
20260510031505 16 0 0.0 0.0 0.00 0.00 0.00 95 1012.0
20260510031004 16 0 0.0 0.0 0.00 0.00 0.00 95 1012.0
20260510030504 16 0 0.0 0.0 0.00 0.00 0.00 95 1013.0
20260510030004 16 0 0.0 0.0 0.00 0.00 0.00 95 1013.0
20260510025503 16 0 0.0 0.0 0.00 0.00 0.00 94 1012.0
20260510025004 16 224 1.6 1.6 0.00 0.00 0.00 94 1012.0
20260510024503 16 224 1.6 1.6 0.00 0.00 0.00 94 1012.0
20260510024003 16 0 0.0 0.0 0.00 0.00 0.00 94 1012.0
20260510023504 16 0 0.0 0.0 0.00 0.00 0.00 94 1012.0
20260510023004 16 0 0.0 0.0 0.00 0.00 0.00 94 1012.0
20260510022504 16 0 0.0 0.0 0.00 0.00 0.00 93 1012.0
20260510022003 16 0 0.0 0.0 0.00 0.00 0.00 93 1012.0
20260510021504 16 0 0.0 0.0 0.00 0.00 0.00 93 1012.0
20260510021003 16 0 0.0 0.0 0.00 0.00 0.00 93 1012.0
20260510020503 16 0 0.0 0.0 0.00 0.00 0.00 93 1012.0
20260510020004 16 0 0.0 0.0 0.00 0.00 0.00 93 1012.0
20260510015503 17 0 0.0 0.0 0.00 0.00 0.00 93 1012.0
20260510015003 17 230 1.6 1.6 0.00 0.00 0.00 92 1012.0
20260510014503 17 0 0.0 0.0 0.00 0.00 0.00 92 1012.0
20260510014003 17 0 0.0 0.0 0.00 0.00 0.00 91 1012.0
20260510013503 17 0 0.0 0.0 0.00 0.00 0.00 91 1012.0
20260510013004 17 0 0.0 0.0 0.00 0.00 0.00 91 1012.0
20260510012505 17 0 0.0 0.0 0.00 0.00 0.00 91 1012.0
20260510012003 17 228 0.0 1.6 0.00 0.00 0.00 91 1012.0
20260510011503 17 218 1.6 1.6 0.00 0.00 0.00 90 1012.0
20260510011003 17 210 0.0 0.0 0.00 0.00 0.00 89 1011.0
20260510010504 18 0 0.0 0.0 0.00 0.00 0.00 88 1011.0
20260510010003 18 0 0.0 0.0 0.00 0.00 0.00 88 1011.0
20260510005503 18 0 0.0 0.0 0.00 0.00 0.00 87 1011.0
20260510005004 18 0 0.0 0.0 0.00 0.00 0.00 87 1011.0
20260510004503 18 0 0.0 0.0 0.00 0.00 0.00 87 1011.0
20260510004003 18 0 0.0 0.0 0.00 0.00 0.00 87 1011.0
20260510003503 18 191 0.0 0.0 0.00 0.00 0.00 86 1011.0
20260510003003 18 0 0.0 0.0 0.00 0.00 0.00 85 1011.0
20260510002503 19 0 0.0 0.0 0.00 0.00 0.00 86 1011.0
20260510002003 19 87 0.0 0.0 0.00 0.00 0.00 85 1011.0
20260510001503 19 335 0.0 0.0 0.00 0.00 0.00 85 1011.0
20260510001005 20 0 0.0 0.0 0.00 0.00 0.00 84 1011.0
20260510000503 20 0 0.0 0.0 0.00 0.00 0.00 83 1011.0
20260510000003 20 0 0.0 0.0 0.00 0.00 0.00 83 1011.0
20260509235504 20 0 0.0 0.0 0.00 0.00 0.00 82 1011.0
20260509235004 20 0 0.0 0.0 0.00 0.00 0.00 81 1011.0
20260509234504 20 0 0.0 0.0 0.00 0.00 0.00 80 1011.0
20260509234003 21 223 0.0 0.0 0.00 0.00 0.00 80 1011.0
20260509233503 21 0 0.0 0.0 0.00 0.00 0.00 78 1011.0
20260509233004 21 0 0.0 0.0 0.00 0.00 0.00 78 1011.0
20260509232504 21 0 0.0 0.0 0.00 0.00 0.00 77 1011.0
20260509232005 21 224 0.0 1.6 0.00 0.00 0.00 75 1011.0
20260509231504 21 0 0.0 0.0 0.00 0.00 0.00 75 1011.0
20260509231004 22 241 0.0 0.0 0.00 0.00 0.00 75 1011.0
20260509230504 22 241 0.0 1.6 0.00 0.00 0.00 72 1011.0
20260509230005 22 232 0.0 0.0 0.00 0.00 0.00 74 1010.0
20260509225503 22 234 0.0 1.6 0.00 0.00 0.00 71 1010.0
20260509225003 22 238 0.0 1.6 0.00 0.00 0.00 70 1010.0
20260509224504 22 224 0.0 1.6 0.00 0.00 0.00 70 1010.0
20260509224005 22 222 0.0 0.0 0.00 0.00 0.00 70 1010.0
20260509223504 22 0 0.0 0.0 0.00 0.00 0.00 73 1010.0
20260509223003 22 186 0.0 1.6 0.00 0.00 0.00 72 1010.0
20260509222503 22 225 1.6 1.6 0.00 0.00 0.00 70 1010.0
20260509222003 22 244 0.0 1.6 0.00 0.00 0.00 70 1010.0
20260509221504 22 267 0.0 1.6 0.00 0.00 0.00 72 1010.0
20260509221004 22 211 1.6 1.6 0.00 0.00 0.00 70 1011.0
20260509220503 22 0 0.0 0.0 0.00 0.00 0.00 70 1010.0
20260509220004 22 221 0.0 0.0 0.00 0.00 0.00 69 1010.0
20260509215503 22 224 1.6 3.2 0.00 0.00 0.00 69 1011.0
20260509215004 22 47 0.0 0.0 0.00 0.00 0.00 69 1011.0
20260509214503 22 260 0.0 1.6 0.00 0.00 0.00 69 1011.0
20260509214003 22 236 0.0 0.0 0.00 0.00 0.00 69 1010.0
20260509213504 22 0 0.0 0.0 0.00 0.00 0.00 70 1010.0
20260509213007 22 235 0.0 1.6 0.00 0.00 0.00 71 1010.0
20260509212503 22 244 0.0 0.0 0.00 0.00 0.00 71 1010.0
20260509212003 22 199 1.6 1.6 0.00 0.00 0.00 69 1010.0
20260509211503 22 208 3.2 4.8 0.00 0.00 0.00 68 1010.0
20260509211003 22 344 0.0 1.6 0.00 0.00 0.00 68 1010.0
20260509210504 22 233 1.6 3.2 0.00 0.00 0.00 67 1010.0
20260509210004 22 46 1.6 3.2 0.00 0.00 0.00 68 1010.0
20260509205504 22 0 1.6 4.8 0.00 0.00 0.00 69 1010.0